Regional Weather Roundup
Issued by NWS

Home | Current Version | Previous Version | Graphics & Text | Print | Product List | Glossary On
Versions: 1 2 3 4 5 6 7 8 9 10 11 12 13 14 15 16 17 18 19 20 21 22 23 24 25 26 27 28 29 30 31 32 33 34 35 36 37 38 39 40 41 42 43 44 45 46 47 48 49 50
000
ASUS45 KBOU 300710
RWRCO

WEATHER ROUNDUP FOR COLORADO
NATIONAL WEATHER SERVICE PUEBLO CO
100 AM MDT THU JUL 30 2015

NOTE: "FAIR" INDICATES FEW OR NO CLOUDS BELOW 12000 FEET WITH NO
SIGNIFICANT WEATHER AND/OR OBSTRUCTIONS TO VISIBILITY.

COZ001>005-013-030-031-300800-
...NORTHWEST COLORADO...

CITY           SKY/WX    TMP DP  RH WIND       PRES   REMARKS
CRAIG          CLEAR     42  29  59 W3        30.38R
HAYDEN         CLEAR     52  25  35 E5        30.39S
MEEKER         CLEAR     53  31  42 E5        30.39R
MOUNT WERNER   NOT AVBL
STEAMBOAT SPGS FAIR      51  32  47 CALM      30.42S
WALDEN         FAIR      41  30  65 SE8       30.50F
$$

COZ006>008-011-300800-
...WEST CENTRAL VALLEYS...

CITY           SKY/WX    TMP DP  RH WIND       PRES   REMARKS
GRAND JUNCTION PTCLDY    66  29  24 CALM      30.22R
MONTROSE       PTCLDY    65  33  30 SE8       30.32R
EAGLE          CLEAR     57  30  35 SE3       30.43R
RIFLE          PTCLDY    63  31  30 CALM      30.31R
DELTA          NOT AVBL
NUCLA          FAIR      68  32  26 E10       30.37R
$$

COZ017>023-064>068-300800-
...SOUTHWEST COLORADO...

CITY           SKY/WX    TMP DP  RH WIND       PRES   REMARKS
DURANGO        MOCLDY    57  47  69 CALM      30.43R
CORTEZ         CLEAR     61  45  55 E6        30.35R
PAGOSA SPRINGS CLOUDY    56  47  72 CALM      30.51R
TELLURIDE      MOCLDY    57  37  46 SE7       30.58F
WOLF CREEK PAS NOT AVBL
$$

COZ009-010-012-014-032>034-037-058>063-300800-
...CENTRAL COLORADO...

CITY           SKY/WX    TMP DP  RH WIND       PRES   REMARKS
ASPEN          CLEAR     54  34  46 S8        30.48S
BUENA VISTA    FAIR      52  49  89 CALM      30.55S
COPPER MTN     PTCLDY    54  19  26 S8        30.80S
BERTHOUD PASS  FAIR      43  32  65 W9        30.83S
COTTONWOOD PAS PTCLDY    54  46  76 N5        30.66S
GUNNISON       NOT AVBL
KREMMLING      CLEAR     50  32  50 CALM      30.49R
LEADVILLE      PTCLDY    45  43  93 NE5       30.65R
MONARCH PASS   PTCLDY    45  41  87 CALM      30.90S
SALIDA         FAIR      61  47  61 NW8       30.59R
NIWOT RIDGE    NOT AVBL
SUNLIGHT       CLEAR     54  21  28 CALM      30.72S
WILKERSON PASS MOCLDY    46  36  66 W6        30.77S
$$

COZ069>075-300800-
...SAN LUIS VALLEY/SANGRE DE CRISTO MOUNTAINS...

CITY           SKY/WX    TMP DP  RH WIND       PRES   REMARKS
ALAMOSA        MOCLDY    56  49  77 NE7       30.50R
LA VETA PASS   MOCLDY    52  37  58 MISG      30.67S
SAGUACHE       CLEAR     54  46  76 NW6       30.52S
$$

COZ035-036-038>040-300800-
...NORTHERN COLORADO FRONT RANGE...

CITY           SKY/WX    TMP DP  RH WIND       PRES   REMARKS
DENVER INTL AP MOCLDY    69  48  47 S15       30.29F
DMNS CITY PARK NOT AVBL
AURORA         MOCLDY    69  50  51 S15       30.31F
FRONT RANGE AP NOT AVBL
ERIE MUNI ARPT FAIR      62  55  78 CALM      30.28R
BOULDER MUN AP FAIR      66  52  59 SW3       30.28S
CENTENNIAL     MOCLDY    67  50  54 S12       30.33S
BROOMFIELD     PTCLDY    64  50  59 W6        30.31S
LOVELAND       PTCLDY    63  48  59 N7        30.29R
LONGMONT       FAIR      64  55  73 CALM      30.29R
$$

COZ041-046-047-076>085-087-088-300800-
...PIKES PEAK/PALMER DIVIDE AND SOUTHERN FOOTHILLS...

CITY           SKY/WX    TMP DP  RH WIND       PRES   REMARKS
COLO. SPRINGS  MOCLDY    64  50  60 E10       30.40R
A. F. ACADEMY  PTCLDY    60  49  65 NE3       30.41S
ELLICOTT       FAIR     N/A N/A N/A SE10      30.38F
FALCON         FAIR      58  50  73 SE5       30.45S
FORT CARSON    NOT AVBL
LIMON          MOCLDY    58  54  86 SE3       30.36S
MONUMENT HILL  NOT AVBL
TRINIDAD       CLOUDY    62  54  74 CALM      30.38R
$$

COZ042>045-048>051-090-091-300800-
...NORTHEAST COLORADO...

CITY           SKY/WX    TMP DP  RH WIND       PRES   REMARKS
GREELEY ARPT   PTCLDY    63  48  59 NE6       30.27S
AKRON          PTCLDY    61  52  72 S14       30.30F
BURLINGTON     CLEAR     60  55  83 S8        30.32R
WRAY           FAIR      62  51  67 S6        30.28S
STERLING       FAIR      64  50  59 S12       30.26S
HOLYOKE        FAIR      59  52  77 S5        30.28S
FORT MORGAN    FAIR      63  49  60 SE6       30.29R
$$

COZ086-089-092>099-300800-
...SOUTHEAST COLORADO...

CITY           SKY/WX    TMP DP  RH WIND       PRES   REMARKS
PUEBLO         PTCLDY    69  49  48 CALM      30.29R
LA JUNTA       MOCLDY    73  63  70 E9        30.28S
LAMAR          MOCLDY    67  63  87 E5        30.27R
SPRINGFIELD      N/A     64  63  96 E3        30.31F
$$




USA.gov is the U.S. government's official web portal to all federal, state and local government web resources and services.